GW0207 Weather Reports


Display with metric or nautical units.
time (UTC)temp
F
wind
direction
speed
MPH
gust
MPH
rain 1hr
in
rain 24hr
in
rain mn
in
humidity
%
barometer
mb
20260506044400 65 187 0.0 5.0 0.00 0.00 0.00 79 1014.5
20260506043635 65 210 0.0 5.0 0.00 0.00 0.00 79 1014.5
20260506043133 65 118 0.0 1.0 0.00 0.00 0.00 79 1014.5
20260506042631 65 74 0.0 4.0 0.00 0.00 0.00 79 1014.4
20260506042133 65 101 0.0 4.0 0.00 0.00 0.00 78 1014.5
20260506041630 65 330 0.0 7.0 0.00 0.00 0.00 78 1014.5
20260506041613 65 65 0.0 7.0 0.00 0.00 0.00 78 1014.5
20260506040629 65 161 0.0 5.0 0.00 0.00 0.00 78 1014.4
20260506040129 65 63 0.0 3.0 0.00 0.00 0.00 77 1014.4
20260506035856 66 68 0.0 4.0 0.00 0.00 0.00 77 1014.5
20260506035130 66 153 0.0 4.0 0.00 0.00 0.00 76 1014.5
20260506034629 66 154 0.0 5.0 0.00 0.00 0.00 76 1014.5
20260506034131 66 143 0.0 5.0 0.00 0.00 0.00 75 1014.5
20260506033628 66 133 0.0 3.0 0.00 0.00 0.00 74 1014.5
20260506033350 67 243 0.0 3.0 0.00 0.00 0.00 74 1014.5
20260506032630 67 286 0.0 3.0 0.00 0.00 0.00 73 1014.4
20260506032129 67 44 0.0 3.0 0.00 0.00 0.00 73 1014.6
20260506031630 67 297 0.0 1.0 0.00 0.00 0.00 72 1014.7
20260506031129 67 174 0.0 6.0 0.00 0.00 0.00 72 1014.6
20260506030852 67 176 0.0 6.0 0.00 0.00 0.00 71 1014.6
20260506030129 67 112 0.0 5.0 0.00 0.00 0.00 71 1014.6
20260506025629 68 101 0.0 5.0 0.00 0.00 0.00 71 1014.6
20260506025130 68 263 0.0 5.0 0.00 0.00 0.00 70 1014.5
20260506024631 68 91 0.0 2.0 0.00 0.00 0.00 70 1014.5
20260506024131 68 77 0.0 3.0 0.00 0.00 0.00 69 1014.5
20260506023629 68 98 0.0 5.0 0.00 0.00 0.00 69 1014.5
20260506023348 69 121 0.0 5.0 0.00 0.00 0.00 68 1014.4
20260506022856 69 169 0.0 3.0 0.00 0.00 0.00 68 1014.5
20260506022349 69 204 0.0 4.0 0.00 0.00 0.00 68 1014.4
20260506021629 69 109 0.0 4.0 0.00 0.00 0.00 67 1014.4
20260506021128 69 32 0.0 4.0 0.00 0.00 0.00 67 1014.4
20260506020629 70 186 0.0 4.0 0.00 0.00 0.00 66 1014.2
20260506020128 70 198 0.0 3.0 0.00 0.00 0.00 66 1014.2
20260506015629 70 197 0.0 2.0 0.00 0.00 0.00 65 1014.2
20260506015350 70 196 0.0 5.0 0.00 0.00 0.00 65 1014.0
20260506014628 70 109 0.0 5.0 0.00 0.00 0.00 65 1014.0
20260506014129 70 106 0.0 1.0 0.00 0.00 0.00 64 1013.9
20260506013629 71 218 0.0 3.0 0.00 0.00 0.00 64 1013.8
20260506013131 71 144 0.0 3.0 0.00 0.00 0.00 63 1013.7
20260506012628 71 62 0.0 1.0 0.00 0.00 0.00 63 1013.7
20260506012129 71 72 0.0 1.0 0.00 0.00 0.00 63 1013.6
20260506011630 71 140 0.0 4.0 0.00 0.00 0.00 62 1013.5
20260506011129 72 68 0.0 4.0 0.00 0.00 0.00 62 1013.5
20260506010847 72 49 0.0 1.0 0.00 0.00 0.00 61 1013.5
20260506010129 72 242 0.0 1.0 0.00 0.00 0.00 61 1013.4
20260506005630 72 99 0.0 1.0 0.00 0.00 0.00 61 1013.3
20260506005129 72 100 0.0 1.0 0.00 0.00 0.00 60 1013.2
20260506004629 72 173 0.0 1.0 0.00 0.00 0.00 60 1013.1
20260506004128 73 107 0.0 1.0 0.00 0.00 0.00 60 1013.1
20260506003847 73 204 0.0 1.0 0.00 0.00 0.00 59 1013.1
20260506003129 73 56 0.0 1.0 0.00 0.00 0.00 59 1013.0
20260506002629 73 79 0.0 1.0 0.00 0.00 0.00 59 1012.9
20260506002130 73 225 0.0 1.0 0.00 0.00 0.00 58 1012.9
20260506001628 73 119 0.0 1.0 0.00 0.00 0.00 58 1012.9
20260506001129 74 119 0.0 1.0 0.00 0.00 0.00 58 1012.8
20260506000629 74 73 0.0 1.0 0.00 0.00 0.00 57 1012.8
20260506000129 74 48 0.0 1.0 0.00 0.00 0.00 57 1012.7
20260505235629 74 136 0.0 2.0 0.00 0.00 0.00 56 1012.6
20260505235353 75 99 0.0 2.0 0.00 0.00 0.00 56 1012.7
20260505234631 75 85 0.0 2.0 0.00 0.00 0.00 55 1012.7
20260505234130 75 230 0.0 0.0 0.00 0.00 0.00 55 1012.7
20260505233629 76 108 0.0 0.0 0.00 0.00 0.00 54 1012.7
20260505233129 76 204 0.0 2.0 0.00 0.00 0.00 53 1012.6
20260505232631 76 115 0.0 2.0 0.00 0.00 0.00 53 1012.7
20260505232355 76 76 0.0 2.0 0.00 0.00 0.00 53 1012.7
20260505231629 76 199 0.0 2.0 0.00 0.00 0.00 53 1012.6
20260505231128 76 351 0.0 2.0 0.00 0.00 0.00 53 1012.6
20260505230629 76 105 0.0 2.0 0.00 0.00 0.00 52 1012.5
20260505230129 76 41 0.0 4.0 0.00 0.00 0.00 52 1012.6
20260505225629 76 285 0.0 9.0 0.00 0.00 0.00 51 1012.6
20260505225129 77 100 0.0 9.0 0.00 0.00 0.00 51 1012.6
20260505224629 77 50 0.0 4.0 0.00 0.00 0.00 50 1012.7
20260505224129 78 211 0.0 2.0 0.00 0.00 0.00 50 1012.7
20260505223629 78 193 0.0 2.0 0.00 0.00 0.00 49 1012.9
20260505223130 78 118 0.0 2.0 0.00 0.00 0.00 48 1012.8
20260505222629 78 160 0.0 6.0 0.00 0.00 0.00 48 1012.9
20260505222128 79 52 1.0 6.0 0.00 0.00 0.00 47 1012.9
20260505221629 79 164 1.0 6.0 0.00 0.00 0.00 47 1012.8
20260505221129 79 180 0.0 10.0 0.00 0.00 0.00 47 1012.8
20260505220629 79 95 1.0 10.0 0.00 0.00 0.00 47 1012.8
20260505220129 79 58 1.0 9.0 0.00 0.00 0.00 47 1012.8
20260505215629 79 41 0.0 5.0 0.00 0.00 0.00 46 1013.0
20260505215129 79 350 0.0 5.0 0.00 0.00 0.00 46 1012.8
20260505214629 79 48 1.0 4.0 0.00 0.00 0.00 46 1012.8
20260505214129 79 41 1.0 4.0 0.00 0.00 0.00 46 1012.9
20260505213629 79 19 1.0 5.0 0.00 0.00 0.00 46 1012.8
20260505213130 79 93 1.0 5.0 0.00 0.00 0.00 46 1012.9
20260505212629 79 198 1.0 6.0 0.00 0.00 0.00 47 1012.9
20260505212128 79 103 0.0 6.0 0.00 0.00 0.00 47 1012.9
20260505211633 78 192 0.0 5.0 0.00 0.00 0.00 48 1012.9
20260505211131 78 108 0.0 5.0 0.00 0.00 0.00 47 1012.9
20260505210631 79 311 0.0 5.0 0.00 0.00 0.00 45 1013.0
20260505210131 80 96 1.0 5.0 0.00 0.00 0.00 46 1013.1
20260505205631 80 43 1.0 5.0 0.00 0.00 0.00 46 1013.1
20260505205131 80 227 1.0 5.0 0.00 0.00 0.00 46 1013.1
20260505204630 81 105 0.0 4.0 0.00 0.00 0.00 45 1013.1
20260505204609 81 160 0.0 4.0 0.00 0.00 0.00 45 1013.2
20260505203631 81 54 1.0 5.0 0.00 0.00 0.00 46 1013.1
20260505203355 81 90 1.0 6.0 0.00 0.00 0.00 44 1013.0
20260505202631 81 220 1.0 7.0 0.00 0.00 0.00 45 1013.2
20260505202130 81 272 1.0 7.0 0.00 0.00 0.00 46 1013.1
20260505201630 80 106 1.0 8.0 0.00 0.00 0.00 47 1013.1
20260505201131 81 193 1.0 8.0 0.00 0.00 0.00 46 1013.4
20260505200631 80 152 1.0 7.0 0.00 0.00 0.00 46 1013.2
20260505200131 80 128 1.0 6.0 0.00 0.00 0.00 48 1013.4
20260505195632 81 51 1.0 8.0 0.00 0.00 0.00 45 1013.4
20260505195131 81 57 1.0 8.0 0.00 0.00 0.00 46 1013.3
20260505194631 81 254 1.0 6.0 0.00 0.00 0.00 45 1013.5
20260505194131 81 124 0.0 6.0 0.00 0.00 0.00 47 1013.8
20260505193631 80 219 0.0 4.0 0.00 0.00 0.00 47 1013.8
20260505193130 81 101 1.0 4.0 0.00 0.00 0.00 45 1013.8
20260505192848 81 41 1.0 5.0 0.00 0.00 0.00 46 1013.8
20260505192131 81 102 1.0 5.0 0.00 0.00 0.00 47 1014.0
20260505191631 80 83 0.0 5.0 0.00 0.00 0.00 46 1014.1
20260505191131 80 88 0.0 6.0 0.00 0.00 0.00 47 1014.1
20260505190632 80 141 0.0 6.0 0.00 0.00 0.00 45 1014.2
20260505190131 80 281 0.0 5.0 0.00 0.00 0.00 47 1014.3
20260505185850 80 17 1.0 5.0 0.00 0.00 0.00 46 1014.5
20260505185129 80 115 0.0 5.0 0.00 0.00 0.00 47 1014.5
20260505184628 81 181 0.0 4.0 0.00 0.00 0.00 47 1014.6
20260505184349 81 43 0.0 4.0 0.00 0.00 0.00 46 1014.7
20260505183631 81 342 0.0 6.0 0.00 0.00 0.00 47 1014.8
20260505183128 82 190 1.0 7.0 0.00 0.00 0.00 47 1014.9
20260505182628 81 273 1.0 7.0 0.00 0.00 0.00 45 1015.0
20260505182130 81 61 1.0 6.0 0.00 0.00 0.00 46 1014.9
20260505181629 81 209 0.0 3.0 0.00 0.00 0.00 46 1014.9
20260505181129 81 64 1.0 3.0 0.00 0.00 0.00 46 1015.1
20260505180849 80 252 1.0 6.0 0.00 0.00 0.00 46 1015.2
20260505180129 80 37 1.0 7.0 0.00 0.00 0.00 44 1015.2
20260505175629 80 37 1.0 7.0 0.00 0.00 0.00 45 1015.1
20260505175128 80 56 1.0 4.0 0.00 0.00 0.00 45 1015.0
20260505174629 81 286 1.0 5.0 0.00 0.00 0.00 46 1015.1
20260505174130 80 207 1.0 5.0 0.00 0.00 0.00 44 1015.1
20260505173629 80 305 0.0 5.0 0.00 0.00 0.00 46 1015.1
20260505173129 80 272 0.0 5.0 0.00 0.00 0.00 46 1015.2
20260505172628 79 205 1.0 4.0 0.00 0.00 0.00 48 1015.2
20260505172129 79 50 1.0 5.0 0.00 0.00 0.00 45 1015.3
20260505171631 80 61 0.0 6.0 0.00 0.00 0.00 47 1015.3
20260505171129 80 345 0.0 6.0 0.00 0.00 0.00 48 1015.3
20260505170628 79 134 0.0 5.0 0.00 0.00 0.00 48 1015.3
20260505170129 79 49 0.0 5.0 0.00 0.00 0.00 48 1015.5
20260505165630 79 31 0.0 3.0 0.00 0.00 0.00 49 1015.5
20260505165131 79 37 0.0 3.0 0.00 0.00 0.00 47 1015.5
20260505164631 79 70 0.0 3.0 0.00 0.00 0.00 47 1015.6
20260505164130 79 257 1.0 4.0 0.00 0.00 0.00 49 1015.6
20260505163851 79 117 0.0 4.0 0.00 0.00 0.00 50 1015.6
20260505163614 78 71 0.0 3.0 0.00 0.00 0.00 50 1015.6
20260505162617 78 77 0.0 3.0 0.00 0.00 0.00 50 1015.7
20260505162109 78 235 0.0 3.0 0.00 0.00 0.00 51 1015.8
20260505161603 78 2 0.0 3.0 0.00 0.00 0.00 50 1015.8
20260505161103 78 356 0.0 4.0 0.00 0.00 0.00 55 1015.8
20260505160603 78 57 0.0 4.0 0.00 0.00 0.00 51 1015.8
20260505160106 77 96 0.0 5.0 0.00 0.00 0.00 54 1015.8
20260505153102 76 233 0.0 3.0 0.00 0.00 0.00 54 1016.3
20260505152604 76 24 0.0 2.0 0.00 0.00 0.00 56 1016.2
20260505152104 75 42 0.0 4.0 0.00 0.00 0.00 56 1016.2
20260505151603 75 299 0.0 5.0 0.00 0.00 0.00 57 1016.2
20260505151103 74 231 0.0 5.0 0.00 0.00 0.00 57 1016.4
20260505150603 74 47 0.0 2.0 0.00 0.00 0.00 56 1016.4
20260505150104 74 45 0.0 3.0 0.00 0.00 0.00 57 1016.3
20260505140603 71 32 0.0 2.0 0.00 0.00 0.00 64 1016.3
20260505125034 64 29 0.0 1.0 0.00 0.00 0.00 76 1016.4
20260505124754 63 57 0.0 0.0 0.00 0.00 0.00 77 1016.4
20260505124032 62 32 0.0 0.0 0.00 0.00 0.00 78 1016.4
20260505123531 61 15 0.0 0.0 0.00 0.00 0.00 79 1016.5
20260505123030 60 32 0.0 0.0 0.00 0.00 0.00 81 1016.5
20260505122530 59 19 0.0 0.0 0.00 0.00 0.00 82 1016.6
20260505122250 59 57 0.0 0.0 0.00 0.00 0.00 82 1016.5
20260505121530 58 39 0.0 0.0 0.00 0.00 0.00 83 1016.5
20260505121028 58 51 0.0 0.0 0.00 0.00 0.00 84 1016.4
20260505120530 57 79 0.0 0.0 0.00 0.00 0.00 84 1016.3
20260505120029 57 207 0.0 0.0 0.00 0.00 0.00 86 1016.3
20260505115528 56 107 0.0 0.0 0.00 0.00 0.00 86 1016.3
20260505115029 56 115 0.0 0.0 0.00 0.00 0.00 87 1016.3
20260505115010 55 100 0.0 0.0 0.00 0.00 0.00 87 1016.3
20260505114032 55 147 0.0 0.0 0.00 0.00 0.00 88 1016.3
20260505113531 55 145 0.0 0.0 0.00 0.00 0.00 88 1016.2
20260505113031 54 145 0.0 0.0 0.00 0.00 0.00 88 1016.2
20260505112530 54 153 0.0 0.0 0.00 0.00 0.00 88 1016.2
20260505112255 54 152 0.0 0.0 0.00 0.00 0.00 88 1016.1
20260505111529 53 153 0.0 0.0 0.00 0.00 0.00 88 1015.9
20260505111028 53 153 0.0 0.0 0.00 0.00 0.00 89 1015.9
20260505111005 53 153 0.0 0.0 0.00 0.00 0.00 89 1015.8
20260505102029 53 161 0.0 0.0 0.00 0.00 0.00 87 1015.4
20260505101529 53 160 0.0 0.0 0.00 0.00 0.00 87 1015.3
20260505101029 53 154 0.0 0.0 0.00 0.00 0.00 86 1015.4
20260505100744 53 154 0.0 0.0 0.00 0.00 0.00 86 1015.3
20260505100025 53 154 0.0 0.0 0.00 0.00 0.00 85 1015.2
20260505095527 53 154 0.0 0.0 0.00 0.00 0.00 85 1015.1
20260505095023 53 154 0.0 0.0 0.00 0.00 0.00 85 1015.1
20260505094520 54 154 0.0 0.0 0.00 0.00 0.00 85 1015.1
20260505094242 54 154 0.0 0.0 0.00 0.00 0.00 85 1015.0
20260505093517 54 154 0.0 0.0 0.00 0.00 0.00 84 1015.0
20260505093015 54 154 0.0 0.0 0.00 0.00 0.00 84 1015.0
20260505092515 54 116 0.0 0.0 0.00 0.00 0.00 84 1014.9
20260505092011 55 116 0.0 0.0 0.00 0.00 0.00 84 1014.9
20260505091731 55 116 0.0 0.0 0.00 0.00 0.00 84 1014.9
20260505091009 55 116 0.0 0.0 0.00 0.00 0.00 83 1014.9
20260505090509 55 116 0.0 0.0 0.00 0.00 0.00 83 1014.9
20260505090008 55 116 0.0 0.0 0.00 0.00 0.00 82 1014.9
20260505085505 55 116 0.0 0.0 0.00 0.00 0.00 82 1014.9
20260505085005 56 115 0.0 0.0 0.00 0.00 0.00 81 1014.9
20260505084727 56 115 0.0 0.0 0.00 0.00 0.00 81 1014.8
20260505084225 56 115 0.0 0.0 0.00 0.00 0.00 81 1014.8
20260505083503 56 115 0.0 0.0 0.00 0.00 0.00 81 1014.8
20260505083005 56 115 0.0 0.0 0.00 0.00 0.00 81 1014.8
20260505082503 56 177 0.0 0.0 0.00 0.00 0.00 81 1014.8
20260505082003 56 177 0.0 0.0 0.00 0.00 0.00 81 1014.7
20260505081504 56 177 0.0 0.0 0.00 0.00 0.00 80 1014.7
20260505081003 56 102 0.0 0.0 0.00 0.00 0.00 80 1014.7
20260505080504 57 102 0.0 0.0 0.00 0.00 0.00 80 1014.6
20260505080004 57 102 0.0 0.0 0.00 0.00 0.00 80 1014.7
20260505075503 57 130 0.0 0.0 0.00 0.00 0.00 80 1014.7
20260505075224 57 230 0.0 0.0 0.00 0.00 0.00 80 1014.5
20260505074501 57 230 0.0 0.0 0.00 0.00 0.00 79 1014.5
20260505074001 57 230 0.0 0.0 0.00 0.00 0.00 79 1014.5
20260505073721 57 248 0.0 0.0 0.00 0.00 0.00 79 1014.5
20260505073001 58 248 0.0 0.0 0.00 0.00 0.00 78 1014.5
20260505072500 58 147 0.0 0.0 0.00 0.00 0.00 78 1014.4
20260505072222 58 146 0.0 0.0 0.00 0.00 0.00 78 1014.4
20260505071722 58 152 0.0 0.0 0.00 0.00 0.00 77 1014.4
20260505071000 58 152 0.0 0.0 0.00 0.00 0.00 77 1014.4
20260505070501 58 157 0.0 0.0 0.00 0.00 0.00 77 1014.4
20260505070231 59 157 0.0 0.0 0.00 0.00 0.00 76 1014.4
20260505065501 59 157 0.0 0.0 0.00 0.00 0.00 76 1014.4
20260505065001 59 247 0.0 0.0 0.00 0.00 0.00 76 1014.4
20260505064501 59 247 0.0 0.0 0.00 0.00 0.00 75 1014.5
20260505064225 59 248 0.0 0.0 0.00 0.00 0.00 75 1014.4
20260505063504 60 100 0.0 0.0 0.00 0.00 0.00 75 1014.3
20260505063005 60 111 0.0 0.0 0.00 0.00 0.00 74 1014.3
20260505062503 60 113 0.0 1.0 0.00 0.00 0.00 74 1014.4
20260505062002 60 240 0.0 1.0 0.00 0.00 0.00 74 1014.4
20260505061504 60 124 0.0 1.0 0.00 0.00 0.00 73 1014.4
20260505061004 61 45 0.0 0.0 0.00 0.00 0.00 73 1014.4
20260505060503 61 45 0.0 0.0 0.00 0.00 0.00 73 1014.4
20260505060004 61 42 0.0 1.0 0.00 0.00 0.00 73 1014.4
20260505055503 61 50 0.0 1.0 0.00 0.00 0.00 72 1014.4
20260505055003 61 60 0.0 1.0 0.00 0.00 0.00 72 1014.4
20260505054504 61 223 0.0 1.0 0.00 0.00 0.00 72 1014.3
20260505054003 62 49 0.0 1.0 0.00 0.00 0.00 72 1014.4
20260505053503 62 115 0.0 4.0 0.00 0.00 0.00 72 1014.5
20260505053004 62 67 0.0 4.0 0.00 0.00 0.00 71 1014.5
20260505052725 62 105 0.0 1.0 0.00 0.00 0.00 71 1014.5
20260505052004 62 7 0.0 2.0 0.00 0.00 0.00 71 1014.5
20260505051721 62 112 0.0 2.0 0.00 0.00 0.00 71 1014.6
20260505051005 62 112 0.0 1.0 0.00 0.00 0.00 71 1014.5
20260505050503 62 245 0.0 1.0 0.00 0.00 0.00 71 1014.5
20260505050222 62 275 0.0 1.0 0.00 0.00 0.00 70 1014.5